Caldwell, NJ

10:09 AM EST on November 13, 2019 (GMT -0500)
Essex County

Weather History for KCDW - September, 2019

Change the Weather History Date:

Friday, September 27, 2019

  Actual Average Record
Temperature  
Mean Temperature 65 °F -  
Max Temperature 78 °F 73 °F 91 °F (1998)
Min Temperature 52 °F 48 °F 32 °F (1984)
Growing Degree Days 15 (Base 50)    
Moisture  
Dew Point 53 °F    
Average Humidity 84    
Maximum Humidity 100    
Minimum Humidity 30    
Precipitation  
Precipitation 0.00 in - - ()
Sea Level Pressure  
Sea Level Pressure 30.07 in    
Wind  
Wind Speed 1 mph ()    
Max Wind Speed 8 mph    
Max Gust Speed -    
Visibility 4.3 miles    
Events Fog    
Averages and records for this station are not official NWS values.
T = Trace of Precipitation, MM = Missing Value Source: Averaged Metar Reports

Daily Weather History Graph

Daily Weather History Graph

Search for Another Location

Airport or City:

Astronomy

Sep. 27, 2019 Rise Set
Actual Time 6:49 AM EDT 6:46 PM EDT
Civil Twilight 6:22 AM EDT 7:13 PM EDT
Nautical Twilight 5:50 AM EDT 7:45 PM EDT
Astronomical Twilight 5:17 AM EDT 8:17 PM EDT
Moon 5:06 AM EDT (9/27) 6:36 PM EDT (9/27)
Length of Visible Light 12h 51m
Length of Day
11h 56m
Waning Crescent, 2% of the Moon is Illuminated
Sep 27
Waning Crescent
Sep 28
New
Oct 5
First Quarter
Oct 13
Full
Oct 21
Last Quarter

Hourly Weather History & Observations

Time (EDT) Temp. Dew Point Humidity Pressure Visibility Wind Dir Wind Speed Gust Speed Precip Events Conditions
12:10 AM 57.9 °F 57.0 °F 97% 29.97 in 1.5 mi Calm Calm - N/A   Clear
12:38 AM 57.9 °F 57.0 °F 97% 29.96 in 2.0 mi Calm Calm - N/A   Clear
12:45 AM 57.0 °F 55.9 °F 96% 29.96 in 2.0 mi Calm Calm - N/A   Partly Cloudy
12:53 AM 57.9 °F 55.9 °F 93% 29.98 in 1.5 mi Calm Calm - N/A   Partly Cloudy
12:55 AM 57.9 °F 55.9 °F 93% 29.97 in 3.0 mi Calm Calm - N/A   Clear
1:14 AM 57.0 °F 55.9 °F 96% 29.97 in 1.8 mi Calm Calm - N/A   Clear
1:21 AM 57.0 °F 55.0 °F 93% 29.98 in 3.0 mi Calm Calm - N/A   Clear
1:53 AM 57.0 °F 55.0 °F 93% 30.00 in 7.0 mi Calm Calm - N/A   Clear
2:23 AM 57.0 °F 55.9 °F 96% 30.00 in 2.0 mi South 4.6 mph - N/A   Partly Cloudy
2:26 AM 57.0 °F 55.9 °F 96% 30.00 in 1.0 mi SSW 3.5 mph - N/A   Mist
2:34 AM 57.0 °F 55.9 °F 96% 30.00 in 0.5 mi Calm Calm - N/A Fog Fog
2:53 AM 57.0 °F 55.9 °F 96% 30.02 in 0.8 mi Calm Calm - N/A   Mist
3:00 AM 57.0 °F 55.9 °F 96% 30.01 in 1.2 mi Calm Calm - N/A   Mostly Cloudy
3:05 AM 55.9 °F 55.0 °F 97% 30.01 in 0.2 mi Calm Calm - N/A Fog Fog
3:26 AM 55.9 °F 55.0 °F 97% 30.01 in 0.5 mi Calm Calm - N/A Fog Fog
3:34 AM 55.9 °F 55.0 °F 97% 30.02 in 2.0 mi Calm Calm - N/A   Mostly Cloudy
3:36 AM 55.0 °F 54.0 °F 96% 30.02 in 0.8 mi Calm Calm - N/A   Mist
3:49 AM 55.4 °F 53.6 °F 94% 30.02 in 2.0 mi Calm Calm - N/A   Partly Cloudy
3:53 AM 55.0 °F 54.0 °F 96% 30.04 in 5.0 mi Calm Calm - N/A   Partly Cloudy
4:04 AM 54.0 °F 53.1 °F 97% 30.03 in 1.2 mi Calm Calm - N/A   Partly Cloudy
4:23 AM 54.0 °F 53.1 °F 97% 30.03 in 0.2 mi Calm Calm - N/A Fog Fog
4:39 AM 53.1 °F 52.0 °F 96% 30.04 in 1.0 mi Calm Calm - N/A   Mist
4:53 AM 53.1 °F 52.0 °F 96% 30.06 in 1.0 mi Calm Calm - N/A   Mist
5:01 AM 53.1 °F 52.0 °F 96% 30.04 in 2.5 mi Calm Calm - N/A   Scattered Clouds
5:08 AM 52.0 °F 51.1 °F 97% 30.04 in 4.0 mi Calm Calm - N/A   Partly Cloudy
5:35 AM 52.0 °F 51.1 °F 97% 30.05 in 4.0 mi Calm Calm - N/A   Mostly Cloudy
5:38 AM 52.0 °F 51.1 °F 97% 30.05 in 1.8 mi Calm Calm - N/A   Mostly Cloudy
5:53 AM 53.1 °F 51.1 °F 93% 30.08 in 0.5 mi Calm Calm - N/A Fog Fog
6:20 AM 52.0 °F 52.0 °F 100% 30.07 in 0.2 mi Calm Calm - N/A Fog Fog
6:53 AM 52.0 °F 52.0 °F 100% 30.11 in 0.2 mi Calm Calm - N/A Fog Fog
7:20 AM 52.0 °F 52.0 °F 100% 30.10 in 0.5 mi Calm Calm - N/A Fog Fog
7:32 AM 52.0 °F 52.0 °F 100% 30.11 in 0.2 mi Calm Calm - N/A Fog Fog
7:53 AM 53.1 °F 53.1 °F 100% 30.14 in 0.2 mi Calm Calm - N/A Fog Fog
8:16 AM 54.0 °F 54.0 °F 100% 30.14 in 1.0 mi Calm Calm - N/A   Mist
8:35 AM 55.0 °F 55.0 °F 100% 30.14 in 3.0 mi Calm Calm - N/A   Mostly Cloudy
8:53 AM 55.9 °F 55.0 °F 97% 30.17 in 10.0 mi Calm Calm - N/A   Partly Cloudy
9:53 AM 63.0 °F 55.0 °F 75% 30.18 in 10.0 mi Calm Calm - N/A   Clear
10:53 AM 66.9 °F 53.1 °F 61% 30.18 in 10.0 mi Calm Calm - N/A   Clear
11:53 AM 70.0 °F 50.0 °F 49% 30.17 in 10.0 mi Variable 3.5 mph - N/A   Clear
12:53 PM 73.0 °F 46.0 °F 38% 30.16 in 10.0 mi SSW 5.8 mph - N/A   Clear
1:53 PM 73.9 °F 46.9 °F 38% 30.13 in 10.0 mi South 8.1 mph - N/A   Clear
2:53 PM 75.9 °F 45.0 °F 33% 30.11 in 10.0 mi South 4.6 mph - N/A   Clear
3:53 PM 78.1 °F 46.0 °F 32% 30.10 in 10.0 mi Variable 4.6 mph - N/A   Clear
4:53 PM 77.0 °F 43.0 °F 30% 30.11 in 10.0 mi Variable 3.5 mph - N/A   Clear
5:53 PM 75.0 °F 44.1 °F 33% 30.12 in 10.0 mi Variable 5.8 mph - N/A   Clear
6:53 PM 71.1 °F 51.1 °F 49% 30.13 in 10.0 mi South 3.5 mph - N/A   Clear
7:53 PM 68.0 °F 52.0 °F 56% 30.14 in 10.0 mi South 4.6 mph - N/A   Clear
8:53 PM 66.9 °F 54.0 °F 63% 30.15 in 10.0 mi Variable 3.5 mph - N/A   Clear
9:53 PM 62.1 °F 55.0 °F 78% 30.16 in 10.0 mi Calm Calm - N/A   Clear
10:53 PM 61.0 °F 55.9 °F 83% 30.16 in 10.0 mi Calm Calm - N/A   Clear
11:53 PM 59.0 °F 55.0 °F 87% 30.15 in 10.0 mi Calm Calm - N/A   Clear